Content
SEND FEEDBACK

Daily
Averages
Monthly
Summary
United States of America

SLEDGE, MISSISSIPPI


Home > North America > United States > Mississippi
Elevation: 17 feet     Latitude: 34 26N     Longitude: 090 13W

WEATHER
 
SELECT A DAY
Number of Records: 225,789;   Date Range: 3/17/05 - 7/29/14
 
SHARE

PRINT THIS DATA

[ ← Previous Day ]
WEATHER ALMANAC - JANUARY 3, 2013
[ Next Day → ]
[ °C ]   °F
Weather ElementAverageHighLow
Temperature34.3 °F41 °F (12:35 pm)26.6 °F (7:35 am)
Dewpoint29.3 °F32 °F (2:15 pm)24.8 °F (7:35 am)
Humidity82.5 %93 % (4:55 am)61 % (12:55 pm)
Barometer30.39 in30.45 in (7:15 pm)30.30 in (12:35 am)
Wind Speed3.9 mph10.4 mph (1:15 pm)
Weather ElementAverage
Visibility9.4 mi
Wind DirectionS (183.1 °)

Weather ElementTotal
Precipitation---
Heating Degree Days31.2 (Base 65)
Averaged from 70 records on January 3, 2013
WEATHER CONDITIONS BREAKOUT
WIND DIRECTION BREAKOUT
WEATHER BY HOUR - JANUARY 3, 2013
[ °C ]   °F
Local TimeTemperatureDewpointHumidityBarometerVisibilityWind DirectionWind SpeedGust SpeedPrecipitationEventsConditions
12:35 AM32.0 °F26.6 °F80 %30.30 in10.0 miCalmClear
1:15 AM32.0 °F26.6 °F80 %30.30 in10.0 miCalmClear
1:35 AM32.0 °F26.6 °F80 %30.31 in10.0 miCalmClear
1:55 AM30.2 °F26.6 °F86 %30.31 in10.0 miCalmClear
2:15 AM32.0 °F26.6 °F80 %30.32 in10.0 miCalmClear
2:35 AM32.0 °F26.6 °F80 %30.32 in10.0 miCalmClear
2:55 AM30.2 °F26.6 °F86 %30.32 in10.0 miCalmClear
3:15 AM32.0 °F26.6 °F80 %30.32 in10.0 miCalmClear
3:35 AM32.0 °F26.6 °F80 %30.33 in10.0 miCalmClear
3:55 AM30.2 °F26.6 °F86 %30.33 in10.0 miCalmClear
4:15 AM30.2 °F26.6 °F86 %30.33 in10.0 miCalmClear
4:35 AM30.2 °F26.6 °F86 %30.34 in10.0 miCalmClear
4:55 AM30.2 °F28.4 °F93 %30.34 in10.0 miCalmClear
5:15 AM30.2 °F28.4 °F93 %30.34 in10.0 miCalmClear
5:35 AM30.2 °F28.4 °F93 %30.34 in7.0 miCalmClear
5:55 AM30.2 °F28.4 °F93 %30.35 in7.0 miCalmClear
6:15 AM28.4 °F26.6 °F93 %30.35 in5.0 miCalmClear
6:35 AM28.4 °F26.6 °F93 %30.36 in4.0 miCalmClear
6:55 AM28.4 °F26.6 °F93 %30.36 in7.0 miNW (320°)3.5 mphClear
7:15 AM28.4 °F26.6 °F93 %30.36 in7.0 miNNW (330°)3.5 mphClear
7:35 AM26.6 °F24.8 °F93 %30.36 in5.0 miCalmClear
7:55 AM28.4 °F26.6 °F93 %30.38 in5.0 miCalmClear
8:15 AM30.2 °F28.4 °F93 %30.38 in5.0 miCalmClear
8:35 AM30.2 °F28.4 °F93 %30.39 in7.0 miCalmClear
8:55 AM32.0 °F28.4 °F87 %30.40 in10.0 miCalmClear
9:15 AM32.0 °F28.4 °F87 %30.41 in10.0 miCalmClear
9:35 AM33.8 °F26.6 °F75 %30.42 in10.0 miNW (320°)3.5 mphClear
9:55 AM33.8 °F28.4 °F81 %30.42 in10.0 miNNW (330°)3.5 mphClear
10:15 AM35.6 °F26.6 °F70 %30.43 in10.0 miNW (310°)5.8 mphClear
10:35 AM35.6 °F28.4 °F75 %30.43 in10.0 miNNW (340°)5.8 mphClear
10:55 AM37.4 °F28.4 °F70 %30.43 in10.0 miNNW (340°)5.8 mphClear
11:15 AM37.4 °F28.4 °F70 %30.43 in10.0 miNorth (350°)8.1 mphClear
11:35 AM37.4 °F30.2 °F75 %30.42 in10.0 miNorth (360°)8.1 mphClear
11:55 AM37.4 °F28.4 °F70 %30.41 in10.0 miNorth (350°)8.1 mphClear
12:15 PM39.2 °F30.2 °F70 %30.41 in10.0 miNNW (340°)9.2 mphClear
12:35 PM41.0 °F30.2 °F65 %30.41 in10.0 miNorth (360°)9.2 mphClear
12:55 PM41.0 °F28.4 °F61 %30.40 in10.0 miNorth (350°)8.1 mphClear
1:15 PM41.0 °F30.2 °F65 %30.39 in10.0 miNorth (350°)10.4 mphClear
1:35 PM41.0 °F30.2 °F65 %30.38 in10.0 miNorth (360°)8.1 mphClear
1:55 PM41.0 °F30.2 °F65 %30.38 in10.0 miNNW (340°)10.4 mphClear
2:15 PM41.0 °F32.0 °F70 %30.38 in10.0 miNorth (10°)10.4 mphClear
2:35 PM41.0 °F32.0 °F70 %30.38 in10.0 miNorth (350°)6.9 mphClear
2:55 PM41.0 °F32.0 °F70 %30.38 in10.0 miNorth (360°)8.1 mphClear
3:15 PM41.0 °F32.0 °F70 %30.38 in10.0 miNNW (340°)6.9 mphClear
3:35 PM41.0 °F32.0 °F70 %30.39 in10.0 miNorth (350°)9.2 mphClear
3:55 PM41.0 °F32.0 °F70 %30.39 in10.0 miNorth (10°)9.2 mphClear
4:15 PM41.0 °F32.0 °F70 %30.39 in10.0 miNorth (350°)8.1 mphClear
4:35 PM37.4 °F32.0 °F81 %30.40 in10.0 miNorth (350°)6.9 mphClear
4:55 PM37.4 °F32.0 °F81 %30.39 in10.0 miNorth (360°)6.9 mphClear
5:15 PM35.6 °F32.0 °F87 %30.39 in10.0 miNorth (360°)5.8 mphClear
5:35 PM35.6 °F30.2 °F81 %30.41 in10.0 miNNW (340°)5.8 mphClear
5:55 PM35.6 °F30.2 °F81 %30.43 in10.0 miNNW (330°)5.8 mphClear
6:15 PM35.6 °F32.0 °F87 %30.43 in10.0 miNW (310°)4.6 mphClear
6:35 PM33.8 °F30.2 °F87 %30.44 in10.0 miWNW (300°)4.6 mphClear
6:55 PM35.6 °F30.2 °F81 %30.44 in10.0 miWNW (300°)5.8 mphClear
7:15 PM33.8 °F30.2 °F87 %30.45 in10.0 miNW (310°)4.6 mphClear
7:35 PM32.0 °F30.2 °F93 %30.45 in10.0 miNW (310°)4.6 mphClear
7:55 PM32.0 °F30.2 °F93 %30.45 in10.0 miNW (310°)8.1 mphClear
8:15 PM35.6 °F32.0 °F87 %30.45 in10.0 miNW (320°)5.8 mphClear
8:35 PM35.6 °F32.0 °F87 %30.45 in10.0 miNW (320°)8.1 mphClear
8:55 PM33.8 °F32.0 °F93 %30.44 in10.0 miNNW (330°)4.6 mphClear
9:15 PM33.8 °F32.0 °F93 %30.44 in10.0 miNorth (350°)8.1 mphClear
9:35 PM33.8 °F32.0 °F93 %30.44 in10.0 miNorth (350°)5.8 mphClear
9:55 PM35.6 °F32.0 °F87 %30.45 in10.0 miNorth (350°)5.8 mphClear
10:15 PM33.8 °F32.0 °F93 %30.45 in10.0 miCalmClear
10:35 PM35.6 °F32.0 °F87 %30.45 in10.0 miCalmClear
10:55 PM33.8 °F32.0 °F93 %30.45 in10.0 miCalmClear
11:15 PM33.8 °F32.0 °F93 %30.45 in10.0 miCalmClear
11:35 PM32.0 °F30.2 °F93 %30.45 in10.0 miCalmClear
11:55 PM32.0 °F30.2 °F93 %30.44 in10.0 miCalmClear
Hourly data recorded from KUTA, located miles away from Sledge, Mississippi







STORIES FROM OUR PARTNERS